Weather History for Buffalo, MN

Change the Weather History Date:

Thursday, June 13, 2013

  Actual Average (KSTC) Record (KSTC)
Temperature  
Mean Temperature 66 °F 65 °F  
Max Temperature 77 °F 77 °F 96 °F (1987)
Min Temperature 56 °F 53 °F 36 °F (1942)
Degree Days  
Heating Degree Days 0 3  
Month to date heating degree days 51  
Since 1 June heating degree days 51  
Since 1 July heating degree days 8505  
Cooling Degree Days 2 3  
Month to date cooling degree days 26  
Year to date cooling degree days 51  
Since 1 June cooling degree days 26  
Growing Degree Days 16 (Base 50)    
Moisture  
Dew Point 52 °F    
Average Humidity 60    
Maximum Humidity 82    
Minimum Humidity 39    
Precipitation  
Precipitation 0.00 in 0.15 in 3.30 in (1981)
Month to date precipitation 1.73  
Year to date precipitation 10.04  
Snow  
Snow 0.00 in 0.00 in 0.00 in ()
Month to date snowfall 0.0  
Since 1 June snowfall 0.0  
Since 1 July snowfall 45.7  
Snow Depth -    
Sea Level Pressure  
Sea Level Pressure 30.07 in    
Wind  
Wind Speed 6 mph (North)    
Max Wind Speed 10 mph    
Max Gust Speed -    
Visibility 10 miles    
Events      
T = Trace of Precipitation, MM = Missing Value Source: NWS Daily Summary

Daily Weather History Graph

Daily Weather History Graph

Search for Another Location

Airport:

Trip Planner

Search our weather history database for the weather conditions in past years. The results will help you decide how hot, cold, wet, or windy it might be!

Date:

Astronomy

Jun. 13, 2013 Rise Set
Actual Time 5:27 AM CDT 9:03 PM CDT
Civil Twilight 4:50 AM CDT 9:41 PM CDT
Nautical Twilight 4:00 AM CDT 10:31 PM CDT
Astronomical Twilight 2:54 AM CDT 11:37 PM CDT
Moon 10:15 AM CDT (6/13) 11:58 PM CDT (6/13)
Length of Visible Light 16h 51m
Length of Day
15h 36m
Waxing Crescent, 22% of the Moon is Illuminated
Jun 13
Waxing Crescent
Jun 16
First Quarter
Jun 23
Full
Jun 29
Last Quarter
Jul 8
New

Hourly Weather History & Observations

Time (CDT) Temp. Dew Point Humidity Pressure Visibility Wind Dir Wind Speed Gust Speed Precip Events Conditions
12:14 AM 63.3 °F 50.4 °F 63% 29.97 in 10.0 mi NNW 8.1 mph - N/A   Clear
12:34 AM 62.8 °F 50.2 °F 63% 29.99 in 10.0 mi NNW 5.8 mph - N/A   Clear
12:54 AM 61.9 °F 50.7 °F 67% 30.00 in 10.0 mi NW 5.8 mph - N/A   Clear
1:14 AM 60.3 °F 50.4 °F 70% 30.01 in 10.0 mi NW 5.8 mph - N/A   Clear
1:35 AM 59.7 °F 50.0 °F 70% 30.00 in 10.0 mi NW 5.8 mph - N/A   Clear
1:54 AM 59.0 °F 49.5 °F 71% 30.01 in 10.0 mi NW 4.6 mph - N/A   Clear
2:14 AM 58.3 °F 49.1 °F 71% 30.01 in 10.0 mi NW 4.6 mph - N/A   Clear
2:34 AM 58.6 °F 49.1 °F 71% 30.01 in 10.0 mi NW 4.6 mph - N/A   Clear
2:54 AM 58.3 °F 48.7 °F 71% 30.02 in 10.0 mi NW 5.8 mph - N/A   Clear
3:15 AM 58.3 °F 48.4 °F 70% 30.03 in 10.0 mi NW 6.9 mph - N/A   Clear
3:34 AM 58.1 °F 48.6 °F 71% 30.04 in 10.0 mi NW 5.8 mph - N/A   Clear
3:54 AM 58.1 °F 48.6 °F 71% 30.03 in 10.0 mi NNW 6.9 mph - N/A   Clear
4:15 AM 58.5 °F 48.7 °F 70% 30.03 in 10.0 mi NNW 6.9 mph - N/A   Clear
4:34 AM 58.1 °F 48.6 °F 71% 30.03 in 10.0 mi North 8.1 mph - N/A   Clear
4:54 AM 57.2 °F 48.7 °F 73% 30.04 in 10.0 mi NNW 8.1 mph - N/A   Clear
5:15 AM 57.2 °F 48.7 °F 73% 30.05 in 10.0 mi NNW 5.8 mph - N/A   Clear
5:34 AM 56.7 °F 49.1 °F 76% 30.05 in 10.0 mi NNW 6.9 mph - N/A   Clear
5:54 AM 56.7 °F 49.1 °F 76% 30.06 in 10.0 mi North 6.9 mph - N/A   Clear
6:15 AM 56.8 °F 48.9 °F 75% 30.07 in 10.0 mi North 6.9 mph - N/A   Clear
6:34 AM 57.6 °F 49.3 °F 74% 30.08 in 10.0 mi North 4.6 mph - N/A   Clear
6:54 AM 58.5 °F 49.5 °F 72% 30.08 in 10.0 mi North 6.9 mph - N/A   Clear
7:15 AM 59.9 °F 50.5 °F 71% 30.08 in 10.0 mi North 4.6 mph - N/A   Clear
7:34 AM 60.4 °F 50.4 °F 69% 30.08 in 10.0 mi North 6.9 mph - N/A   Clear
7:54 AM 61.3 °F 51.3 °F 69% 30.08 in 10.0 mi North 6.9 mph - N/A   Clear
8:15 AM 62.2 °F 51.6 °F 68% 30.09 in 10.0 mi NNE 5.8 mph - N/A   Clear
8:34 AM 63.7 °F 52.0 °F 66% 30.09 in 10.0 mi North 5.8 mph - N/A   Clear
8:54 AM 64.0 °F 52.0 °F 65% 30.09 in 10.0 mi NNE 6.9 mph - N/A   Clear
9:15 AM 65.5 °F 52.5 °F 63% 30.10 in 10.0 mi NNE 6.9 mph - N/A   Clear
9:34 AM 65.5 °F 52.5 °F 63% 30.09 in 10.0 mi NE 6.9 mph - N/A   Clear
9:54 AM 66.4 °F 52.9 °F 62% 30.11 in 10.0 mi NE 6.9 mph - N/A   Clear
10:15 AM 66.9 °F 53.2 °F 61% 30.11 in 10.0 mi NNE 5.8 mph - N/A   Clear
10:34 AM 67.3 °F 53.4 °F 61% 30.11 in 10.0 mi NNE 5.8 mph - N/A   Clear
10:54 AM 69.1 °F 53.8 °F 58% 30.12 in 10.0 mi Calm Calm - N/A   Clear
11:15 AM 69.3 °F 52.7 °F 56% 30.12 in 10.0 mi NW 4.6 mph - N/A   Clear
11:34 AM 70.5 °F 51.8 °F 51% 30.12 in 10.0 mi North 5.8 mph - N/A   Clear
11:54 AM 70.7 °F 52.5 °F 52% 30.12 in 10.0 mi NW 4.6 mph - N/A   Clear
12:15 PM 72.1 °F 52.3 °F 50% 30.12 in 10.0 mi NW 5.8 mph - N/A   Clear
12:34 PM 72.7 °F 51.6 °F 47% 30.12 in 10.0 mi NW 6.9 mph - N/A   Clear
12:54 PM 72.5 °F 51.6 °F 48% 30.11 in 10.0 mi NW 3.5 mph - N/A   Clear
1:14 PM 72.5 °F 50.9 °F 47% 30.12 in 10.0 mi NW 6.9 mph - N/A   Scattered Clouds
1:34 PM 74.3 °F 51.1 °F 44% 30.11 in 10.0 mi North 4.6 mph - N/A   Scattered Clouds
1:54 PM 73.2 °F 51.3 °F 46% 30.11 in 10.0 mi NW 5.8 mph - N/A   Scattered Clouds
2:14 PM 74.5 °F 51.6 °F 45% 30.10 in 10.0 mi NNE 5.8 mph - N/A   Scattered Clouds
2:34 PM 74.7 °F 51.3 °F 44% 30.11 in 10.0 mi NNE 3.5 mph - N/A   Mostly Cloudy
2:54 PM 75.6 °F 52.0 °F 44% 30.09 in 10.0 mi ENE 4.6 mph - N/A   Scattered Clouds
3:15 PM 77.0 °F 51.4 °F 41% 30.09 in 10.0 mi NNE 8.1 mph - N/A   Scattered Clouds
3:34 PM 76.6 °F 51.3 °F 41% 30.09 in 10.0 mi NNE 6.9 mph - N/A   Scattered Clouds
3:54 PM 77.0 °F 50.5 °F 39% 30.08 in 10.0 mi NE 8.1 mph - N/A   Scattered Clouds
4:15 PM 77.0 °F 51.3 °F 40% 30.08 in 10.0 mi East 4.6 mph - N/A   Scattered Clouds
4:34 PM 76.8 °F 51.3 °F 41% 30.08 in 10.0 mi NE 5.8 mph - N/A   Clear
4:54 PM 77.0 °F 50.9 °F 40% 30.07 in 10.0 mi NE 10.4 mph - N/A   Clear
5:15 PM 77.0 °F 51.3 °F 40% 30.06 in 10.0 mi NE 6.9 mph - N/A   Clear
5:34 PM 77.0 °F 51.6 °F 41% 30.07 in 10.0 mi NNE 8.1 mph - N/A   Clear
5:54 PM 76.6 °F 52.3 °F 43% 30.07 in 10.0 mi NE 6.9 mph - N/A   Scattered Clouds
6:15 PM 75.9 °F 52.5 °F 44% 30.07 in 10.0 mi East 4.6 mph - N/A   Scattered Clouds
6:34 PM 76.1 °F 52.2 °F 43% 30.07 in 10.0 mi ENE 4.6 mph - N/A   Clear
6:54 PM 76.1 °F 52.5 °F 44% 30.07 in 10.0 mi ENE 4.6 mph - N/A   Clear
7:15 PM 74.8 °F 51.8 °F 44% 30.08 in 10.0 mi NE 4.6 mph - N/A   Clear
7:34 PM 76.1 °F 52.9 °F 44% 30.07 in 10.0 mi East 8.1 mph - N/A   Mostly Cloudy
7:54 PM 74.3 °F 52.9 °F 47% 30.07 in 10.0 mi East 3.5 mph - N/A   Scattered Clouds
8:14 PM 73.4 °F 53.8 °F 50% 30.08 in 10.0 mi East 4.6 mph - N/A   Clear
8:34 PM 72.5 °F 54.5 °F 53% 30.08 in 10.0 mi Calm Calm - N/A   Clear
8:55 PM 70.5 °F 54.5 °F 57% 30.07 in 10.0 mi ENE 3.5 mph - N/A   Clear
9:14 PM 68.9 °F 54.9 °F 61% 30.08 in 10.0 mi Calm Calm - N/A   Clear
9:34 PM 66.6 °F 56.5 °F 70% 30.08 in 10.0 mi ENE 3.5 mph - N/A   Clear
9:55 PM 65.5 °F 56.8 °F 74% 30.08 in 10.0 mi Calm Calm - N/A   Clear
10:14 PM 65.1 °F 55.0 °F 70% 30.08 in 10.0 mi Calm Calm - N/A   Clear
10:34 PM 63.3 °F 56.3 °F 78% 30.08 in 10.0 mi Calm Calm - N/A   Clear
10:55 PM 62.1 °F 55.9 °F 80% 30.08 in 10.0 mi Calm Calm - N/A   Clear
11:14 PM 62.4 °F 55.4 °F 78% 30.08 in 10.0 mi Calm Calm - N/A   Clear
11:34 PM 62.1 °F 55.6 °F 79% 30.08 in 10.0 mi Calm Calm - N/A   Clear
11:55 PM 60.8 °F 55.4 °F 82% 30.09 in 10.0 mi Calm Calm - N/A   Clear